Weather in Bekabad

Uzbekistan     40°13′03″N   69°15′56″E
temp.,
°C
wind,
m/s
gust,
m/s
humid.,
%
clouds,
%
prec.,
mm/h
press.,
hPa
HPBL,
m
18 april, sun
sun1823:00+19sw5739100 0.0 1017154
02:00+18sw2343100 0.0 101669
05:00+17nne1146100 0.0 101822
08:00+18sw5740100 0.0 1020358
11:00+22w5530100 0.0 10212033
14:00+24w5526100 0.0 10202688
17:00+24sw44256 0.0 10192734
20:00+19s46356 0.0 102089
19 april, mon
mon1923:00+17sse22415 0.0 101912
02:00+16sse22425 0.0 101812
05:00+15sse2240100 0.0 101811
08:00+18ese6104320 0.0 1017543
11:00+23e783088 0.0 10151068
14:00+25e43238 0.0 10131758
17:00+26n1121100 0.0 10112060
20:00+21n3328100 0.0 101243
20 april, tue
tue2023:00+19wnw1132100 0.0 101111
02:00+18sw1233100 0.0 101011
05:00+17ssw1136100 0.0 101011
08:00+20wsw1136100 0.1 101153
11:00+23wnw873195 0.1 10121839
14:00+20nnw10940100 0.0 10131377
17:00+21wsw1339100 0.0 10121320
20:00+18se3349100 0.0 101251
21 april, wed
wed2123:00+17ese3352100 0.1 100956
02:00+15nw2263100 0.2 101033
05:00+14w3578100 0.6 1011191
08:00+14wnw567998 0.6 1014549
11:00+14wnw6887100 2.9 1016828
14:00+13wnw7976100 1.6 1017885
17:00+14sw5568100 1.7 1018581
20:00+14wsw3568100 0.1 1020156
22 april, thu
thu2223:00+12nw366979 0.1 1021249
02:00+9w35815 0.0 1022119
05:00+7wnw22844 0.0 102438
08:00+9wnw22710 0.0 1025428
11:00+14nnw33480 0.0 1024948
14:00+18nw33300 0.0 10241258
17:00+19nw33270 0.0 10231243
20:00+15w33380 0.0 102418